カタログに戻る

CZ-6A DEB

運用中SSO
NORAD 54498·DEBRIS·🇨🇳 China

打ち上げ Nov 11, 2022 から Taiyuan Satellite Launch Center

Loading…

次のパス (今後24時間)

TLE

最新Source: Space-Track

元期: Sep 14, 2026, 02:58 UTC

1 54498U 22151JA  26257.12404492  .00004061  00000-0  10807-2 0  9998
2 54498  98.7584 314.8097 0024092  61.0584 299.3020 14.48934379200803

AllMySatでCZ-6A DEBをリアルタイム追跡

Download on the App Store